San Luis Potosi, Mexico

9:09 PM CDT on August 21, 2017 (GMT -0500)
Ponciano Arriaga International

Weather History for MMSP - March, 2013

Change the Weather History Date:

Thursday, March 7, 2013

  Actual Average Record
Temperature  
Mean Temperature 61 °F -  
Max Temperature 84 °F 75 °F 84 °F (1998)
Min Temperature 38 °F 45 °F 35 °F (2002)
Degree Days  
Heating Degree Days 4    
Growing Degree Days 11 (Base 50)    
Moisture  
Dew Point 34 °F    
Average Humidity 37    
Maximum Humidity 75    
Minimum Humidity 16    
Precipitation  
Precipitation 0.00 in - - ()
Sea Level Pressure  
Sea Level Pressure 30.12 in    
Wind  
Wind Speed 2 mph ()    
Max Wind Speed 17 mph    
Max Gust Speed 17 mph    
Visibility 10.9 miles    
Events      
Averages and records for this station are not official NWS values.
T = Trace of Precipitation, MM = Missing Value Source: Averaged Metar Reports

Daily Weather History Graph

Daily Weather History Graph

Search for Another Location

Airport or City:

Trip Planner

Search our weather history database for the weather conditions in past years. The results will help you decide how hot, cold, wet, or windy it might be!

Date:

Astronomy

Mar. 07, 2013 Rise Set
Actual Time 6:59 AM CST 6:50 PM CST
Civil Twilight 6:37 AM CST 7:12 PM CST
Nautical Twilight 6:11 AM CST 7:38 PM CST
Astronomical Twilight 5:45 AM CST 8:04 PM CST
Moon 3:35 AM CST (3/7) 3:03 PM CST (3/7)
Length of Visible Light 12h 35m
Length of Day
11h 50m
Waning Crescent, 20% of the Moon is Illuminated
Mar 7
Waning Crescent
Mar 11
New
Mar 19
First Quarter
Mar 27
Full
Apr 2
Last Quarter

Hourly Weather History & Observations

Time (CST) Temp. Dew Point Humidity Pressure Visibility Wind Dir Wind Speed Gust Speed Precip Events Conditions
12:41 AM 48.2 °F 33.8 °F 58% 30.31 in 8.0 mi Calm Calm - N/A   Scattered Clouds
1:54 AM 48.2 °F 33.8 °F 58% 30.30 in 8.0 mi Calm Calm - N/A   Scattered Clouds
2:52 AM 48.2 °F 33.8 °F 58% 29.95 in 8.0 mi Calm Calm - N/A   Mostly Cloudy
3:47 AM 46.4 °F 32.0 °F 57% 30.26 in 8.0 mi Calm Calm - N/A   Mostly Cloudy
4:47 AM 44.6 °F 32.0 °F 61% 30.26 in 8.0 mi Calm Calm - N/A   Mostly Cloudy
5:47 AM 44.6 °F 32.0 °F 61% 30.01 in 8.0 mi Calm Calm - N/A   Mostly Cloudy
6:44 AM 39.2 °F 32.0 °F 75% 30.28 in 8.0 mi Calm Calm - N/A   Mostly Cloudy
7:45 AM 44.6 °F 28.4 °F 53% 30.30 in 10.0 mi Calm Calm - N/A   Mostly Cloudy
8:45 AM 50 °F 36 °F 46% 30.23 in 7 mi Calm Calm - -   Haze
8:51 AM 51.8 °F 30.2 °F 44% 30.04 in 10.0 mi Calm Calm - N/A   Scattered Clouds
9:47 AM 57.2 °F 28.4 °F 33% 30.32 in 10.0 mi Calm Calm - N/A   Mostly Cloudy
10:51 AM 66.2 °F 32.0 °F 28% 30.31 in 12.0 mi Calm Calm - N/A   Mostly Cloudy
11:45 AM 69 °F 41 °F 25% 30.17 in 7 mi Calm Calm - -   Haze
11:47 AM 71.6 °F 32.0 °F 23% 29.96 in 12.0 mi SSE 4.6 mph - N/A   Scattered Clouds
12:51 PM 78.8 °F 28.4 °F 16% 30.24 in 15.0 mi West 4.6 mph - N/A   Scattered Clouds
1:44 PM 78.8 °F 33.8 °F 20% 30.20 in 15.0 mi SE 9.2 mph - N/A   Mostly Cloudy
2:45 PM 80.6 °F 32.0 °F 17% 29.77 in 15.0 mi SE 5.8 mph 17.3 mph N/A   Scattered Clouds
2:50 PM 81 °F 47 °F 21% 29.93 in 12 mi South 4.5 mph - -   Partly Cloudy
3:50 PM 78.8 °F 33.8 °F 20% 30.14 in 15.0 mi ESE 5.8 mph - N/A   Scattered Clouds
4:49 PM 78.8 °F 33.8 °F 20% 30.13 in 15.0 mi ESE 12.7 mph - N/A   Scattered Clouds
5:46 PM 77.0 °F 33.8 °F 21% 29.82 in 15.0 mi East 17.3 mph - N/A   Scattered Clouds
5:50 PM 75 °F 42 °F 20% 29.81 in 9 mi South 4.5 mph - -   Haze
6:45 PM 75.2 °F 30.2 °F 19% 30.14 in 12.0 mi East 11.5 mph - N/A   Scattered Clouds
7:50 PM 66.2 °F 30.2 °F 26% 30.19 in 12.0 mi East 4.6 mph - N/A   Partly Cloudy
8:41 PM 64.4 °F 33.8 °F 32% 29.88 in 12.0 mi Calm Calm - N/A   Partly Cloudy
9:43 PM 60.8 °F 33.8 °F 36% 30.24 in 12.0 mi Calm Calm - N/A   Scattered Clouds
10:54 PM 57.2 °F 37.4 °F 48% 30.24 in 12.0 mi ENE 5.8 mph - N/A   Scattered Clouds
11:43 PM 55.4 °F 37.4 °F 51% 29.88 in 10.0 mi Calm Calm - N/A   Scattered Clouds